Wind_Speed
12 12 10 9 7 5 3 3 4 5 6 6 6 5 4 4 3 6 14 6 9 15 7 3 5 4 0 1 2 1 2 1 2 2 2 1 1 2 1 0 1 1 1 0 0 1 1 2 1 1 2 2 2 3 3 2 2 2 1 2 2 1 2 1 6 5 6 9 5 4 2 3 1 3 1 2 1 2 4 6 2 2 6 4 1 5 6
11 12 10 9 8 7 7 8 8 9 9 8 8 6 3 3 2 6 17 9 3 7 5 2 4 2 0 3 3 2 1 2 2 2 2 2 1 2 1 1 1 1 0 1 1 2 1 1 2 1 1 1 1 2 3 2 1 1 1 1 2 2 0 2 4 7 8 8 7 5 3 2 2 5 1 3 0 2 2 2 1 2 8 7 4 7 7
13 14 14 13 13 12 12 11 9 9 8 6 7 6 4 4 2 4 17 21 12 5 4 6 5 3 3 5 3 3 2 2 1 1 2 1 1 1 2 1 1 2 2 3 3 2 2 1 2 3 2 3 2 1 2 2 1 0 1 1 1 2 1 2 2 3 7 7 7 7 6 5 5 7 5 1 1 3 4 3 2 4 6 6 5 9 8
15 16 16 16 15 13 11 9 8 8 8 7 8 7 3 3 4 2 9 15 11 4 1 5 6 4 4 4 3 2 2 1 1 2 2 2 1 2 2 2 2 3 5 4 4 3 2 2 2 3 3 4 2 1 1 1 1 1 2 2 2 1 1 2 5 5 5 7 9 6 3 5 9 13 15 9 3 3 2 1 4 5 6 8 8 9 10
14 14 15 13 12 10 9 9 9 7 6 7 8 9 5 3 3 2 2 4 5 5 5 5 4 3 4 3 1 2 3 3 2 1 1 1 2 2 2 4 4 3 4 4 3 5 4 3 2 2 4 4 4 2 2 1 2 0 1 1 2 3 3 4 6 8 10 10 11 10 5 6 12 13 14 13 11 9 5 5 8 7 6 7 8 13 11
14 11 10 8 7 6 7 6 5 4 3 3 5 6 5 3 3 1 1 2 2 3 3 4 6 5 4 3 2 3 4 3 2 2 2 2 2 1 3 5 4 1 2 2 3 6 6 5 3 3 3 4 5 4 1 1 3 1 1 2 2 4 3 4 3 7 12 10 11 12 8 7 9 8 9 13 14 12 9 8 9 8 5 5 11 14 11
19 14 11 8 6 6 5 4 6 8 7 5 8 7 3 4 4 1 2 4 3 2 2 4 7 7 5 3 3 3 4 4 1 2 2 4 4 3 3 6 6 3 2 2 1 3 2 4 5 2 2 3 3 4 2 0 2 1 1 2 1 3 3 4 2 6 12 11 10 9 6 6 7 6 8 10 9 9 9 7 7 7 4 5 12 14 11
26 21 17 14 11 8 7 7 7 9 9 9 11 8 2 3 4 1 4 5 2 1 3 4 5 5 4 4 3 2 3 3 1 1 3 2 4 4 3 6 7 3 3 4 1 3 5 4 6 3 2 4 2 2 2 2 3 4 2 2 1 0 3 3 2 5 12 10 4 3 5 7 5 7 10 11 11 12 13 9 6 6 5 8 13 12 10
30 28 26 22 19 16 13 11 9 8 9 11 10 7 5 5 5 6 7 4 4 3 3 4 5 4 4 2 1 1 1 0 0 1 0 2 1 1 1 5 6 2 1 1 4 6 7 8 10 7 4 5 3 2 1 1 3 5 2 1 3 2 3 4 5 5 11 9 6 9 10 5 3 9 14 14 11 13 13 7 3 5 6 10 12 11 10
30 30 29 27 26 24 21 19 16 12 14 16 10 4 6 7 5 5 7 4 3 3 3 4 4 2 2 0 0 1 0 2 1 2 1 1 2 3 3 2 2 3 5 5 4 6 7 8 8 5 5 6 4 3 2 2 1 2 1 1 1 2 1 3 4 4 10 12 12 13 11 6 3 6 11 12 10 12 14 9 6 5 5 7 8 9 12
30 29 29 28 28 27 26 25 21 16 16 17 13 8 6 6 4 3 7 6 3 3 3 4 4 2 0 1 1 2 2 3 2 3 1 2 1 2 2 1 2 3 4 3 2 3 3 2 1 0 2 4 4 3 4 3 4 5 3 0 1 2 3 1 1 1 9 13 12 11 9 7 1 3 6 8 8 11 16 15 10 6 4 7 8 11 15
31 30 30 30 30 30 29 29 26 22 19 17 18 14 7 6 6 4 6 6 3 5 4 3 1 1 0 1 2 2 3 3 2 1 1 2 2 1 2 2 2 2 3 2 1 1 1 1 0 0 1 2 3 3 4 5 5 5 4 3 1 1 1 2 1 2 6 7 7 9 10 3 4 4 6 10 11 14 18 19 11 5 6 13 14 16 21
32 32 32 31 31 32 31 30 28 24 18 15 18 18 11 8 9 6 6 7 2 4 4 2 1 0 1 2 4 2 1 1 3 2 1 1 2 2 2 2 2 3 2 3 3 2 1 3 3 3 3 2 1 2 4 5 5 4 5 5 3 2 2 1 1 2 4 5 5 8 8 1 5 3 11 15 17 16 17 18 13 5 8 17 18 21 24
33 33 32 32 31 31 31 29 27 25 20 16 20 20 13 8 8 4 4 7 2 2 3 4 3 3 2 1 3 2 2 2 2 2 2 1 2 5 4 4 3 3 3 2 3 3 2 2 4 5 5 6 5 2 1 1 2 3 5 6 4 4 3 1 2 1 1 4 4 7 8 3 4 8 12 13 12 12 12 14 10 3 12 22 23 25 25
33 32 32 31 31 30 30 28 26 24 22 20 22 23 18 13 10 7 7 7 4 0 1 2 1 1 1 0 2 3 2 3 2 1 2 1 3 5 4 3 3 3 2 2 3 3 3 3 4 5 5 5 5 3 2 2 1 0 2 4 4 3 3 1 1 1 1 3 5 6 8 6 2 6 11 12 12 13 14 13 7 7 19 25 22 22 23
33 32 32 31 30 29 28 27 25 24 22 20 22 24 22 17 13 13 11 8 6 3 0 3 4 3 2 0 1 4 2 0 0 2 5 4 4 5 3 2 2 2 2 3 3 3 4 3 2 2 3 2 2 4 4 4 3 2 2 4 5 2 1 4 1 2 1 2 4 5 6 4 3 8 14 15 15 16 15 12 7 11 19 20 18 19 21
32 31 31 31 30 28 27 25 24 23 21 20 21 23 22 15 11 13 12 7 5 3 1 3 4 3 2 1 2 2 2 1 1 1 2 3 3 5 5 2 1 1 2 4 4 3 5 3 1 1 4 2 1 3 4 4 5 5 4 3 5 4 3 4 1 3 3 2 4 4 3 2 5 11 16 17 17 17 15 12 11 14 17 17 17 19 20
32 31 30 30 29 28 27 25 23 21 19 18 20 23 22 15 9 9 9 7 5 3 1 1 4 2 1 2 1 0 1 1 2 1 2 3 2 2 4 3 2 2 1 4 3 3 3 1 1 1 3 3 1 2 2 3 6 7 6 5 3 4 3 1 1 4 5 4 5 4 2 2 8 16 19 19 16 12 11 12 13 15 17 16 16 18 19
30 30 29 29 28 27 26 26 24 22 19 16 17 20 20 15 11 13 13 8 4 3 1 2 2 1 1 0 1 0 1 2 2 2 2 4 2 0 2 1 1 2 2 4 3 2 2 2 1 2 1 4 2 0 1 2 3 5 6 5 4 5 4 3 2 4 5 4 6 7 4 1 10 17 18 16 12 8 9 12 14 15 16 16 16 18 17
29 29 28 27 27 26 26 26 25 23 20 16 15 20 21 14 8 8 10 9 6 4 4 5 3 2 3 3 3 1 2 3 2 3 3 1 2 3 5 3 2 2 3 4 3 1 1 2 3 1 1 3 2 1 2 3 2 3 5 4 3 3 4 3 4 4 4 5 6 6 4 5 13 18 14 10 9 9 11 12 12 13 15 16 16 16 15
28 28 27 26 27 26 25 26 25 23 21 16 15 22 24 20 17 14 16 20 15 4 1 3 5 7 8 6 6 4 3 3 2 1 2 2 2 4 3 2 2 0 0 1 1 1 0 1 2 1 1 2 1 1 3 4 4 3 3 3 3 2 2 3 3 2 3 4 4 5 7 9 12 14 12 9 10 10 11 12 12 12 13 13 13 14 15
27 27 26 25 25 25 25 25 24 23 21 17 16 22 24 23 23 21 21 26 23 11 7 8 9 12 13 11 10 9 6 3 2 1 0 2 3 2 3 1 1 1 2 2 1 2 1 0 1 1 2 2 1 1 1 1 3 4 4 5 2 2 3 3 4 2 3 6 8 7 8 9 10 11 12 13 14 13 13 14 14 12 11 11 12 14 17
25 26 25 25 24 24 24 24 23 23 22 18 18 23 24 22 21 21 23 28 24 14 10 10 9 10 10 9 9 10 9 7 3 2 0 1 2 1 1 1 1 1 0 2 1 1 1 1 1 0 1 2 0 2 2 1 2 3 4 5 1 2 3 2 1 4 7 7 8 10 10 11 14 14 12 13 15 14 13 14 13 13 12 11 12 14 17
24 25 25 24 24 23 23 23 23 22 21 19 19 22 26 23 21 20 21 19 12 6 5 6 4 3 4 6 8 10 12 11 6 2 1 1 2 2 2 2 2 2 2 1 1 3 2 1 1 1 1 3 1 2 2 1 2 2 3 4 2 2 4 3 3 8 9 7 9 15 15 15 15 13 12 13 15 15 14 14 14 15 15 14 14 16 18
23 24 24 24 23 22 21 21 21 20 20 18 17 19 20 17 13 12 12 9 5 5 5 3 3 2 4 6 7 9 12 13 9 4 0 1 0 1 2 2 2 2 1 1 1 3 2 0 1 2 1 3 0 1 1 1 2 1 4 4 4 4 6 7 7 9 9 9 13 18 18 17 16 13 13 15 16 17 19 18 18 18 19 19 20 18 16
23 23 23 23 22 21 20 19 19 19 19 17 16 18 20 18 13 10 12 13 10 7 5 1 2 2 3 5 6 9 12 14 11 8 4 2 1 1 1 1 2 2 2 3 3 3 3 1 2 3 1 2 0 0 0 2 2 2 4 4 4 5 6 8 10 11 9 9 13 17 19 18 15 14 16 17 16 19 21 21 20 21 21 21 24 23 20
22 22 21 22 21 19 17 16 16 18 19 18 18 19 21 21 17 11 9 9 5 3 3 2 2 3 1 2 7 12 14 13 12 10 8 5 3 2 1 2 3 2 3 4 2 2 3 2 1 2 3 2 0 1 1 3 4 3 3 3 3 5 6 7 10 10 9 11 14 15 15 15 13 15 19 19 18 19 20 21 22 23 23 22 25 28 27
21 21 20 20 20 19 16 12 11 13 17 20 22 24 25 25 23 18 11 6 5 5 4 3 2 1 2 2 7 13 15 14 12 11 10 8 6 4 2 3 3 3 3 3 1 2 3 1 1 2 2 0 1 1 2 3 4 3 3 3 4 4 5 6 7 8 11 15 16 13 11 12 15 18 18 19 19 18 18 22 23 22 24 25 24 26 28
20 20 19 19 20 20 18 14 9 5 7 10 13 19 22 23 22 21 17 16 18 15 7 3 3 2 1 1 5 11 16 15 11 9 10 9 7 4 3 3 2 3 3 3 3 2 1 2 2 1 1 1 1 1 1 3 2 2 2 3 4 4 4 6 7 10 13 16 15 13 12 13 17 19 18 20 22 18 16 20 22 21 26 28 24 23 26
18 18 18 18 19 21 20 17 14 9 3 4 4 6 11 13 15 16 14 14 16 13 6 3 3 0 2 1 2 11 18 15 9 8 9 7 5 4 3 3 2 3 3 3 2 2 1 1 1 2 2 0 1 1 2 2 0 1 1 3 5 4 5 6 7 9 11 13 13 15 15 14 16 19 20 23 28 26 19 20 23 26 30 31 26 24 26
16 16 16 17 19 20 20 19 18 14 8 5 2 2 3 3 7 11 11 9 10 9 6 4 2 1 3 1 1 11 19 15 8 8 8 4 5 4 3 2 2 2 3 2 1 1 1 1 1 3 3 2 4 3 2 2 1 3 6 7 6 5 6 7 8 9 11 12 13 15 16 15 15 17 19 22 30 32 26 24 30 33 32 32 31 27 26
14 14 15 15 16 18 21 22 20 20 20 19 15 10 6 2 3 8 10 9 9 8 6 4 2 1 2 2 2 11 18 12 6 8 7 3 3 3 2 3 2 2 3 2 1 1 0 1 1 2 3 3 4 3 3 3 3 6 10 10 8 7 7 8 10 11 12 13 13 13 16 16 14 15 19 24 30 31 27 27 35 39 36 33 32 29 28
12 12 13 14 14 15 18 20 21 22 27 29 25 20 15 9 6 8 10 10 10 8 5 4 3 1 2 2 1 10 16 9 3 6 6 2 2 2 1 3 3 2 2 2 0 1 1 1 2 2 2 2 4 3 3 3 4 8 10 10 10 11 11 10 11 11 11 14 13 11 13 17 19 22 27 30 31 32 30 31 34 35 32 27 23 23 28
9 9 11 13 13 14 15 17 20 22 25 25 23 24 24 20 13 9 7 8 9 9 6 5 3 1 4 2 0 6 12 6 1 3 4 3 4 3 1 2 3 2 2 2 1 0 2 1 3 2 2 3 4 3 2 4 6 7 8 9 10 12 13 14 13 12 12 16 17 15 18 23 24 25 27 26 29 34 37 34 30 27 24 23 22 23 26
7 6 7 10 12 12 12 13 15 18 18 17 15 18 25 27 24 20 13 7 6 4 3 4 4 1 4 4 2 6 10 6 0 1 2 3 4 3 1 1 3 2 0 1 1 1 2 1 3 2 1 3 3 1 1 5 8 8 8 10 11 13 14 16 17 16 16 19 20 21 23 24 22 20 19 18 22 29 30 27 25 24 23 25 29 28 24
6 4 4 6 8 10 10 10 10 10 9 9 9 13 17 20 22 24 24 20 15 7 2 2 3 2 1 1 3 6 10 6 1 2 2 2 3 3 2 3 3 1 1 2 2 1 2 1 2 2 2 2 1 2 4 5 9 11 11 11 11 12 12 15 18 18 19 21 22 21 21 21 19 18 18 18 20 24 24 23 24 25 25 27 30 28 23
5 4 2 2 3 6 7 8 8 7 5 5 7 8 8 7 8 13 17 19 17 12 7 4 2 1 1 1 3 5 7 4 2 4 3 1 2 3 2 3 2 1 2 4 2 1 2 2 3 2 1 1 2 4 4 3 6 8 8 9 10 11 12 15 18 18 19 22 23 21 20 20 19 18 19 19 20 22 24 25 25 26 26 27 28 27 27
5 4 4 3 3 3 4 4 5 4 4 4 4 3 5 5 4 6 7 7 8 8 7 5 1 1 0 0 3 4 4 2 1 3 2 2 2 2 2 2 0 1 2 2 3 1 3 3 3 3 1 2 2 3 3 4 5 6 7 9 12 14 15 17 19 18 15 17 19 19 19 19 19 19 19 20 22 24 27 28 29 29 28 28 29 30 29
4 3 4 5 4 2 1 3 3 3 4 3 3 3 4 5 5 3 3 3 3 3 4 3 1 1 1 1 3 3 3 2 3 3 3 2 2 2 1 1 1 1 2 1 3 2 3 2 2 2 0 3 3 3 4 5 6 9 13 16 18 20 21 20 20 19 16 16 19 20 19 18 19 18 17 17 21 26 31 34 34 33 32 34 35 31 26
5 4 4 4 3 2 3 4 2 3 2 3 4 3 3 4 3 1 1 3 3 2 2 2 0 1 1 1 2 2 2 3 1 1 1 1 1 0 1 1 1 1 2 2 3 2 2 0 1 2 1 4 4 4 5 6 8 13 18 21 22 24 25 24 24 25 25 25 27 28 27 26 25 22 19 19 21 24 28 34 36 35 35 38 37 30 27
6 4 3 3 2 3 4 5 4 2 2 3 4 3 2 2 2 1 2 3 3 2 2 2 3 3 2 2 1 2 2 3 1 2 1 2 1 1 2 1 1 2 1 3 3 2 3 1 2 0 3 4 5 5 7 9 9 13 20 24 25 27 28 27 28 31 30 29 29 31 32 34 33 29 27 27 27 27 29 32 35 37 39 38 34 31 34
5 4 4 4 3 3 3 5 6 4 2 2 2 2 1 1 2 2 2 1 0 2 2 1 2 3 4 2 1 2 2 3 2 2 2 2 1 1 1 1 2 2 1 4 1 3 3 2 2 3 4 4 6 7 9 11 10 13 18 23 25 27 28 27 29 33 35 32 29 30 34 36 36 33 32 33 33 35 37 36 35 38 41 38 33 34 37
5 4 4 3 3 4 4 4 4 4 3 2 2 2 2 2 2 2 2 1 1 1 2 2 2 3 3 2 0 2 2 2 2 1 1 1 1 2 3 2 2 0 1 1 2 3 1 1 2 3 4 5 7 8 10 12 14 16 20 24 27 29 29 28 29 33 37 36 34 35 37 38 37 38 39 38 36 39 45 44 41 41 41 38 35 37 40
3 3 3 2 2 4 3 2 2 2 2 2 1 1 1 3 2 0 1 2 1 1 1 1 2 3 3 1 1 1 2 1 2 1 1 1 1 2 2 1 2 2 1 2 2 1 1 3 3 3 5 6 8 9 10 12 14 16 19 25 30 30 30 30 31 33 34 36 37 39 40 39 38 40 43 43 41 40 42 44 44 43 41 39 38 38 40
2 2 3 3 3 3 2 1 2 2 2 1 1 3 2 1 2 3 2 1 1 1 2 2 2 1 3 3 1 1 1 1 2 1 1 1 2 1 1 2 1 1 2 1 1 2 2 3 3 4 7 9 10 10 11 13 16 18 18 22 28 30 28 29 30 30 30 32 35 37 37 36 37 38 41 44 45 42 38 39 42 43 41 40 40 40 42
3 2 3 3 1 2 1 1 1 1 1 1 2 3 4 4 4 4 2 1 1 1 3 1 1 1 2 3 1 0 0 1 1 0 0 2 1 1 2 1 1 3 3 2 2 2 3 4 4 6 8 10 11 10 11 15 20 21 18 17 23 27 28 28 29 31 32 34 35 35 35 35 38 39 39 42 45 43 39 39 41 41 39 38 39 42 46
3 2 3 3 1 2 2 1 0 0 1 2 3 3 3 3 2 2 2 2 2 1 2 1 0 1 1 1 0 0 1 1 1 1 1 1 0 2 1 2 1 0 1 1 3 4 4 4 5 6 8 10 10 10 12 15 19 21 20 20 23 27 28 28 29 32 35 36 35 34 34 37 40 41 40 40 41 41 40 41 42 40 39 40 41 44 46
2 1 2 2 1 0 0 1 2 2 1 0 1 2 1 1 1 2 2 2 2 1 1 2 1 1 1 1 1 0 1 1 1 1 0 2 1 2 3 2 2 2 2 3 4 4 4 5 6 7 8 9 9 9 10 13 18 21 22 23 24 26 27 28 30 32 36 36 33 31 33 37 39 39 38 38 39 39 41 43 43 41 41 44 46 46 44
6 3 3 2 2 1 1 2 3 1 1 2 2 1 1 1 2 4 2 2 1 1 1 2 1 0 1 1 1 1 0 0 0 0 2 2 1 0 0 1 2 3 2 3 4 3 4 5 6 7 8 8 9 10 12 16 20 22 22 23 25 26 27 29 31 34 35 35 33 33 36 38 37 36 36 37 38 40 41 42 41 40 43 45 46 44 42
6 4 3 2 2 1 1 2 2 1 3 3 2 1 1 1 3 4 2 3 1 1 1 1 1 0 0 1 2 2 1 1 1 2 1 1 1 2 1 2 3 4 4 4 4 4 5 5 5 6 8 8 9 12 16 19 22 24 24 25 26 28 29 30 31 33 34 35 35 37 38 37 36 35 35 35 38 41 41 38 36 38 41 43 43 40 40
4 3 1 1 1 3 4 3 2 3 4 3 3 3 3 2 2 4 4 3 3 4 2 0 0 1 2 2 1 0 1 0 2 2 1 2 2 3 2 4 5 4 3 4 4 4 5 5 5 5 6 8 10 15 19 22 25 27 27 27 27 28 29 31 31 32 34 36 37 38 38 37 38 38 38 38 38 39 39 39 41 44 45 44 41 40 40
2 2 1 1 0 3 4 3 2 2 3 3 3 4 3 2 3 4 5 4 3 2 1 1 2 3 1 1 1 1 1 2 2 0 2 2 2 3 4 5 4 3 4 5 5 5 5 7 9 9 9 11 15 20 23 25 27 28 28 28 28 28 29 30 31 32 34 35 37 38 38 37 38 40 41 39 34 30 28 34 43 48 48 44 41 40 41
Wind_Direction
161 168 170 174 166 152 136 105 93 86 81 84 79 72 60 72 108 356 354 5 89 74 61 330 30 65 302 37 61 34 82 85 358 9 15 7 18 25 44 125 47 156 227 309 303 299 250 235 280 269 253 268 227 185 152 137 116 78 346 322 342 358 80 8 292 280 276 286 325 42 67 89 96 264 211 175 218 170 207 230 216 256 277 276 324 279 265
131 138 142 145 141 135 123 108 102 94 90 88 82 88 99 105 149 15 17 20 98 84 93 118 63 69 38 50 27 359 80 91 31 13 354 358 70 55 17 318 8 353 41 65 317 315 4 277 313 352 247 277 14 130 138 128 124 83 342 334 349 322 344 32 342 333 329 329 349 350 329 3 291 268 205 139 32 335 244 256 54 246 269 271 260 260 254
115 121 121 120 120 119 113 106 105 94 88 90 89 109 130 72 73 335 21 39 62 100 144 135 124 135 89 61 20 0 39 66 63 91 15 13 146 91 357 332 20 356 22 29 336 350 35 303 325 9 292 274 349 53 106 95 132 245 322 337 337 272 233 95 74 331 320 320 319 313 312 325 312 293 297 17 53 304 278 304 298 245 273 276 245 260 281
110 116 116 115 111 109 106 100 101 93 84 93 91 91 113 73 54 330 3 30 51 71 100 95 107 138 113 71 14 37 55 351 325 113 58 20 69 56 351 340 24 21 34 27 330 320 8 328 333 350 294 276 304 331 117 119 208 249 2 11 58 88 255 207 176 198 242 257 268 284 319 313 299 298 303 313 329 292 278 294 265 263 291 279 269 298 322
110 118 117 115 103 96 100 96 95 92 81 89 83 63 60 92 77 62 0 4 31 34 17 41 73 128 124 100 21 35 21 327 343 49 56 9 32 59 38 33 39 17 21 31 324 304 334 349 334 307 280 271 289 305 110 63 299 279 30 346 80 75 307 255 199 218 243 249 266 287 311 291 280 287 302 314 322 325 318 282 280 293 294 282 321 346 344
98 112 117 119 105 92 100 94 68 49 44 92 95 54 30 74 119 170 117 74 55 42 27 55 67 56 73 103 77 34 25 25 30 332 323 7 14 58 42 21 30 354 320 36 341 326 343 347 320 310 309 310 329 342 44 34 330 356 34 341 104 111 272 255 193 244 262 262 267 278 284 270 268 288 320 324 326 333 326 303 309 323 301 299 342 347 337
77 85 90 94 98 91 89 77 56 61 71 90 91 74 33 84 106 325 33 89 147 149 57 78 70 48 51 73 53 55 60 50 24 279 350 3 351 45 47 334 333 310 242 135 54 332 347 324 301 293 323 320 339 337 318 334 345 17 23 323 137 136 265 265 206 274 284 279 267 266 265 266 289 341 1 343 338 347 341 327 331 330 303 328 343 336 332
70 73 76 77 82 83 80 80 76 72 76 79 75 68 54 126 130 130 60 69 93 56 35 63 68 39 41 64 43 67 83 49 346 325 46 19 338 25 44 304 307 297 192 145 173 235 195 238 258 220 320 309 232 234 265 260 335 2 37 313 323 54 288 305 54 320 302 295 278 266 256 260 300 15 15 359 358 2 356 346 341 333 313 330 339 335 334
71 71 72 71 70 70 67 67 69 71 85 87 73 60 77 98 122 134 108 63 8 20 27 62 78 33 14 53 43 34 65 124 161 347 25 145 238 326 289 286 302 330 91 176 259 243 202 221 240 222 230 260 228 221 234 130 350 348 7 332 348 11 299 334 32 346 304 306 333 323 302 289 37 35 14 1 2 359 349 332 316 333 325 327 339 343 332
71 70 72 71 70 69 66 64 65 75 95 98 88 89 107 98 96 108 103 75 6 15 20 42 73 63 351 34 146 48 281 243 155 93 310 238 209 215 206 233 314 348 350 332 279 242 220 231 249 244 237 249 253 258 242 139 106 312 319 317 331 88 69 329 7 336 297 308 328 322 317 336 33 41 13 356 353 350 341 325 298 303 328 337 336 327 315
69 70 71 71 71 71 70 69 67 69 85 97 107 134 150 131 117 81 78 75 4 358 41 39 51 91 152 26 50 67 57 0 22 93 100 299 267 194 169 125 14 306 282 288 250 215 223 239 256 327 259 265 266 253 248 231 204 203 188 194 298 81 94 269 274 273 288 307 329 327 326 336 313 107 41 357 344 344 337 327 304 272 324 342 319 313 320
67 67 67 68 68 67 66 66 64 62 69 88 106 118 131 128 113 83 85 96 353 349 55 51 11 104 320 13 58 66 66 31 350 128 153 283 279 153 148 128 33 298 249 284 331 161 91 24 77 196 252 240 235 236 247 249 236 216 193 188 241 28 70 254 209 200 277 313 357 340 330 337 177 149 33 360 349 347 338 330 312 273 337 339 325 324 328
66 66 65 64 64 64 62 61 61 62 65 80 94 98 104 108 97 83 98 104 28 354 79 84 315 18 16 61 80 77 237 264 303 280 179 269 285 287 250 181 208 279 306 354 355 25 11 337 334 314 307 333 1 249 237 236 234 219 202 202 206 151 132 231 215 211 293 336 6 324 314 65 131 23 7 3 356 349 337 326 312 285 335 339 333 331 330
67 66 65 65 64 63 63 62 62 63 65 71 81 86 91 91 91 102 116 101 76 275 125 91 11 1 358 76 97 74 296 309 329 264 212 183 241 251 248 214 224 289 338 6 4 20 25 9 13 345 327 359 13 338 267 235 205 191 206 210 190 151 129 5 302 196 284 316 302 293 299 331 49 12 3 357 340 328 320 312 302 325 352 344 337 330 327
67 66 66 66 65 65 65 63 63 64 64 65 72 80 81 74 83 110 120 112 115 252 71 128 194 255 340 218 129 96 11 354 17 275 281 282 239 247 246 221 250 309 357 53 30 27 45 49 27 355 338 0 357 310 318 351 352 157 219 195 174 175 166 135 294 283 43 317 301 312 312 308 333 345 345 343 327 320 317 304 298 7 356 340 329 321 320
67 66 66 67 66 67 67 65 64 65 65 66 70 75 75 68 79 97 100 104 112 89 25 192 189 175 143 293 52 94 104 293 69 356 335 325 289 286 280 227 246 302 34 56 52 58 53 48 51 353 316 323 326 303 317 336 328 340 51 110 118 120 109 98 71 303 5 354 299 300 303 305 332 330 337 345 335 325 319 302 308 354 345 328 318 317 318
66 65 66 67 67 67 67 66 65 64 62 60 64 69 70 69 82 97 93 85 91 93 220 183 143 100 97 83 2 54 126 153 93 78 326 310 300 306 310 307 294 241 85 47 28 55 56 44 73 8 288 244 91 319 314 335 323 320 350 49 79 63 35 51 21 290 302 302 282 278 263 288 337 335 341 347 337 329 329 320 323 339 332 321 321 320 317
65 64 64 64 65 65 66 64 62 62 59 57 62 67 67 65 76 99 99 91 94 99 298 160 133 116 103 145 161 335 135 46 31 68 305 321 314 302 315 340 348 313 54 59 35 49 54 3 41 61 266 260 31 342 301 332 320 317 326 327 356 26 10 5 305 307 316 304 294 301 270 287 347 347 347 344 334 331 339 324 315 324 326 323 321 315 312
64 64 62 62 62 62 63 63 59 58 56 51 57 63 60 60 81 98 94 81 81 105 26 7 115 143 327 146 153 331 36 62 70 107 51 349 316 265 356 9 24 334 8 59 63 72 63 321 313 110 215 291 339 62 236 293 295 313 329 335 1 5 336 332 349 325 319 313 307 304 279 348 5 350 342 344 341 335 331 315 310 319 321 317 313 309 307
63 63 61 62 62 60 61 62 59 57 55 52 62 69 63 59 69 85 98 107 103 88 39 11 25 69 32 38 82 68 27 43 57 118 119 299 292 55 37 350 328 354 10 40 40 35 58 318 305 65 179 270 292 306 293 292 280 311 339 9 30 345 311 334 340 317 313 319 324 320 303 347 360 347 340 350 342 317 310 310 311 315 314 311 309 306 305
62 63 61 61 62 61 61 62 59 58 58 56 70 76 71 68 71 81 110 119 113 103 31 30 52 75 69 59 70 76 69 63 46 113 166 257 296 67 80 254 256 25 36 78 51 326 285 227 286 331 274 263 305 334 300 315 324 327 13 60 60 28 10 330 309 349 8 328 313 322 311 321 344 341 327 321 315 310 316 317 313 312 311 308 306 304 304
61 61 61 60 62 61 61 62 61 61 61 57 64 78 81 82 85 92 103 99 89 88 117 105 83 78 74 66 61 54 44 46 33 348 194 286 315 63 102 183 196 179 189 117 70 328 328 265 247 332 314 299 348 296 252 310 311 313 11 49 65 38 8 299 263 322 336 279 269 285 296 309 326 325 315 314 316 319 317 309 305 307 307 305 304 303 304
60 59 59 59 61 61 61 63 61 61 63 58 60 80 95 97 93 97 100 93 86 88 99 94 82 71 60 48 44 37 26 19 354 287 178 23 330 343 62 55 42 252 96 80 117 189 176 198 207 3 284 238 287 333 331 15 298 305 16 38 163 241 314 310 252 308 297 269 275 295 306 317 320 316 315 317 316 315 310 303 301 302 300 299 299 298 299
59 57 57 56 58 59 60 63 63 63 65 62 64 82 98 102 98 99 99 95 92 90 66 47 49 59 17 1 14 17 14 15 1 292 202 94 18 347 334 352 35 13 352 354 161 132 113 191 186 74 283 230 142 13 322 317 315 333 26 11 305 282 325 348 358 331 319 310 312 314 317 320 317 314 314 312 310 311 310 306 303 303 302 302 299 298 298
59 57 56 54 55 57 59 61 63 65 68 69 72 84 94 95 95 99 98 96 109 118 90 32 354 339 330 346 9 11 7 13 17 14 320 229 83 40 336 341 48 57 308 298 93 91 77 348 121 98 255 253 2 7 267 286 340 44 57 17 334 328 342 341 337 331 318 304 309 316 318 318 320 325 323 317 316 318 314 309 307 307 307 305 302 301 300
60 57 55 54 54 56 58 62 66 69 73 74 75 80 83 79 76 85 98 102 101 96 96 94 287 299 342 4 14 10 5 10 19 29 26 344 329 349 319 356 59 90 92 71 78 111 123 108 99 113 200 259 12 12 315 53 61 78 64 28 316 313 340 337 326 323 309 300 318 328 324 319 323 328 320 314 315 316 311 307 308 310 311 310 310 309 306
61 58 55 54 55 56 59 66 72 74 76 74 73 76 76 71 65 68 95 114 106 65 92 144 265 297 10 39 16 10 7 6 9 14 16 16 13 355 355 55 68 67 68 58 47 87 91 62 61 175 206 245 51 105 91 88 102 98 53 14 323 331 352 341 327 327 322 319 328 332 322 314 318 320 314 310 311 312 309 310 314 316 316 316 314 313 312
60 57 54 53 55 55 56 63 74 83 83 76 71 73 71 64 58 56 61 90 118 115 125 152 173 115 109 47 9 8 6 1 0 3 5 15 30 33 43 75 85 78 79 86 77 74 83 82 227 214 212 267 21 30 41 64 82 77 38 3 343 343 347 338 327 318 312 313 318 322 312 302 305 308 307 306 309 310 310 312 313 313 313 314 313 313 314
57 55 52 52 53 52 49 46 48 72 102 92 77 71 67 61 58 61 67 85 100 104 102 93 95 95 71 330 353 5 4 358 354 352 354 9 34 53 62 82 110 113 100 100 100 99 151 199 202 237 244 132 179 286 47 59 64 90 72 1 335 310 308 325 318 304 302 307 310 311 303 296 299 304 304 305 309 310 307 307 308 308 309 310 309 308 310
57 54 52 51 53 53 48 43 39 37 78 158 149 77 59 50 49 58 71 88 98 103 106 97 95 48 312 292 337 359 2 360 355 349 348 9 49 68 73 76 94 103 82 61 89 127 231 275 325 296 287 118 117 115 83 71 74 202 233 326 323 298 293 311 306 292 295 302 304 304 301 296 300 305 304 309 316 316 310 306 307 308 308 307 306 305 306
57 55 53 55 59 59 55 51 50 50 66 107 131 69 59 26 23 43 64 81 88 95 101 92 92 315 342 10 358 358 358 355 357 358 355 27 65 57 60 69 68 94 88 58 71 123 195 269 4 323 318 33 77 104 111 76 1 297 305 316 316 297 296 305 301 291 293 298 302 304 305 305 310 312 311 314 317 316 311 307 310 310 308 307 305 303 305
59 57 57 61 67 68 66 64 62 63 70 76 79 83 100 127 20 46 69 82 81 89 96 79 69 355 338 315 334 1 358 352 5 15 7 37 67 38 47 69 65 107 108 95 86 47 256 195 138 347 337 34 67 95 97 63 3 313 314 320 320 316 313 312 308 303 303 308 313 312 312 315 319 315 308 308 310 310 308 308 311 312 310 308 306 307 312
61 61 62 68 73 76 77 74 72 73 75 76 77 78 78 77 68 69 80 80 68 67 80 85 90 86 319 269 325 8 4 356 4 18 9 8 29 10 23 48 48 74 68 57 135 247 287 139 101 25 334 20 67 94 83 38 331 305 312 318 319 321 321 315 311 309 312 319 323 317 311 311 311 309 307 308 312 315 315 314 314 313 312 312 314 318 320
62 67 69 73 76 81 85 82 79 81 79 74 69 65 64 66 68 70 83 89 71 58 56 68 96 280 333 343 4 12 11 6 324 1 358 338 356 12 345 347 20 62 46 14 105 38 339 46 90 56 338 4 45 81 66 333 306 297 308 317 321 325 325 324 325 324 323 325 323 314 308 308 308 312 314 314 317 321 321 319 318 317 317 322 327 326 322
55 71 80 79 77 82 91 90 84 82 77 69 67 67 66 67 65 63 67 78 72 56 34 44 72 81 4 5 305 337 3 14 308 324 323 303 346 26 99 9 15 48 32 347 87 48 352 81 106 73 5 15 36 75 276 309 311 315 324 328 331 334 331 329 329 326 324 325 321 315 315 317 315 316 318 316 316 319 320 320 321 322 325 329 329 327 325
42 57 88 94 82 78 81 79 73 71 68 69 80 81 75 72 68 65 67 68 68 80 127 57 64 104 60 344 271 324 358 7 300 311 329 307 339 13 77 67 37 5 13 42 53 8 340 95 92 42 18 51 82 209 235 299 321 328 334 332 332 335 330 323 321 320 320 322 320 318 322 327 324 321 320 319 318 320 321 323 327 330 330 331 330 328 325
31 40 63 107 80 62 57 51 47 52 70 93 103 91 76 73 67 58 57 57 56 60 78 88 102 177 174 229 263 326 353 346 302 337 345 308 315 339 47 65 33 315 13 29 15 310 337 27 70 73 82 153 188 212 230 311 321 315 321 325 325 328 325 318 317 318 320 322 324 324 327 329 326 323 322 321 320 323 325 329 333 334 331 330 328 324 319
30 41 45 53 59 52 36 18 24 56 89 109 117 83 35 27 42 40 30 34 38 41 55 75 114 247 42 293 281 321 343 326 345 3 337 269 306 345 34 59 10 315 21 341 274 291 24 29 64 92 227 270 253 238 281 326 311 292 307 323 324 324 322 319 319 322 323 324 325 323 324 326 325 323 322 321 321 325 329 331 333 332 330 327 322 318 320
32 45 45 49 61 70 9 357 21 96 112 85 75 65 19 15 36 33 348 1 21 12 25 56 125 201 77 353 296 320 17 33 10 358 337 315 331 338 1 4 322 24 44 299 270 20 42 10 33 78 234 282 294 286 297 318 319 319 328 329 325 324 323 321 321 323 319 314 313 313 315 320 320 319 319 321 323 327 331 332 332 332 330 325 319 320 330
40 57 54 50 56 55 34 27 52 133 123 40 38 57 36 22 42 64 6 25 28 342 349 53 160 238 71 48 293 299 23 36 14 330 322 308 282 71 50 7 284 38 46 270 275 28 66 343 13 73 196 271 296 298 302 320 327 329 332 331 327 326 325 323 323 323 319 315 315 317 318 321 321 320 320 322 325 330 332 332 330 330 328 323 321 328 341
38 54 63 69 74 57 44 41 49 82 84 42 37 46 38 13 13 34 52 47 20 299 289 48 19 331 351 57 172 258 322 356 70 124 106 309 306 50 38 319 315 63 75 253 270 57 82 62 7 314 229 274 307 313 320 330 331 330 331 331 329 328 327 326 327 328 326 322 321 322 324 326 326 326 326 327 329 331 330 327 326 326 326 324 326 335 341
52 74 88 94 85 61 39 34 31 31 48 61 47 35 21 1 4 16 32 62 29 284 288 35 12 299 290 296 231 226 285 344 20 82 80 326 322 76 68 330 16 59 224 248 286 57 59 10 311 266 264 302 322 325 331 334 330 327 330 330 329 329 329 328 328 329 329 326 323 324 326 328 328 328 330 331 332 330 327 324 324 325 325 326 331 338 339
65 79 94 98 60 29 21 20 22 29 45 49 39 25 2 0 21 22 334 297 305 331 305 316 333 322 313 322 276 245 276 331 15 83 100 312 339 62 53 22 21 80 245 284 48 55 44 246 237 251 287 322 330 332 335 331 325 326 330 331 331 330 330 330 329 328 329 330 329 328 329 329 329 330 332 334 334 332 328 326 328 328 327 329 334 338 338
72 67 66 74 33 18 18 3 3 34 50 38 57 93 29 345 337 14 315 315 325 324 304 327 8 354 324 324 24 335 309 338 51 67 6 329 14 58 54 318 260 259 317 20 42 16 265 230 228 266 311 330 333 333 334 330 328 330 331 331 331 332 332 333 332 330 330 332 333 332 331 331 331 332 333 335 335 332 327 327 330 331 331 332 335 336 337
62 33 37 40 8 358 18 4 355 31 55 43 162 157 162 221 226 211 216 218 213 313 336 18 73 49 286 287 7 63 311 343 19 13 341 13 26 26 236 236 263 26 38 26 1 328 288 261 271 313 328 330 331 333 333 331 331 330 328 328 330 332 333 333 332 331 330 332 333 333 332 332 332 333 333 332 333 332 329 329 332 333 334 336 336 335 336
82 67 72 80 21 342 61 88 13 27 121 196 197 176 175 188 200 207 215 192 171 315 319 324 109 121 289 297 328 71 9 26 28 337 76 73 42 277 237 197 37 38 40 2 320 279 253 265 299 327 329 327 328 330 330 330 331 330 329 327 327 328 331 333 332 331 331 332 333 333 333 333 333 333 331 329 330 331 332 333 334 336 337 337 335 334 334
81 53 78 100 52 0 46 108 171 156 171 196 201 196 197 206 215 226 220 196 187 233 304 304 214 192 250 290 12 321 342 46 51 296 339 83 200 289 3 57 49 313 104 291 270 253 255 289 320 327 323 323 326 327 328 330 330 329 329 328 325 326 330 334 333 332 332 333 333 334 334 333 332 331 329 327 327 329 332 334 336 338 339 337 334 333 333
94 52 70 109 147 334 48 150 141 105 75 295 242 230 218 179 242 252 227 183 161 125 27 22 27 350 315 15 66 314 307 29 58 284 353 82 63 339 8 22 315 277 199 197 228 253 282 307 317 318 317 320 324 324 325 328 327 327 328 328 326 327 331 334 333 332 332 332 333 334 333 332 330 329 327 326 326 329 333 335 337 339 340 338 335 334 334
81 81 74 98 138 187 207 138 119 104 322 317 321 340 43 92 248 252 229 146 139 209 193 155 133 157 276 321 53 63 9 12 92 2 9 34 56 120 101 319 303 296 253 215 226 267 293 299 307 314 315 316 321 323 323 323 324 325 326 325 325 328 332 333 332 332 332 333 333 333 332 330 328 327 328 328 327 328 331 333 335 338 339 338 335 333 334
59 71 82 89 100 152 183 114 101 281 289 302 311 284 153 175 256 256 211 146 118 39 56 96 103 101 335 17 39 37 306 251 122 86 35 340 170 152 161 248 238 234 238 245 257 280 292 298 309 312 309 311 319 322 321 321 321 322 324 326 328 330 333 333 333 333 333 333 332 331 330 329 328 328 328 328 326 325 326 331 335 338 338 337 335 334 334
43 64 93 159 151 163 166 149 149 204 226 232 231 213 185 178 234 232 194 146 87 51 45 136 194 51 43 31 38 71 253 335 75 77 262 235 175 143 182 238 234 227 244 268 272 276 285 292 297 301 306 314 318 317 317 317 318 321 325 329 330 332 333 334 334 334 333 332 332 331 330 329 329 328 328 328 328 329 330 334 338 340 339 338 337 336 335
60 75 70 315 93 136 136 126 127 169 190 195 189 177 167 187 215 196 167 129 89 70 205 191 101 72 46 254 210 104 46 38 41 347 246 225 186 169 190 217 236 251 265 276 284 285 282 288 294 298 300 305 311 313 315 317 319 323 327 330 331 332 334 334 334 333 333 332 331 330 328 328 330 332 332 333 335 337 336 333 334 336 337 336 335 336 336
Height
814 815 816 817 817 818 818 818 819 818 819 819 818 819 823 828 833 832 829 827 824 827 849 871 874 875 882 884 885 886 885 883 882 884 885 883 881 880 880 881 882 881 882 882 880 878 874 871 870 870 872 874 879 889 894 893 893 889 878 879 885 881 880 874 856 845 841 836 840 848 850 845 840 841 845 845 844 842 844 847 845 844 839 834 843 835 805
815 815 816 817 818 819 819 819 820 820 820 820 819 821 828 833 835 834 830 826 823 831 851 866 873 879 882 881 883 886 885 884 882 883 884 884 883 879 879 884 883 883 887 885 880 879 875 871 874 875 873 877 889 895 894 892 891 888 882 884 886 877 871 869 859 850 844 835 836 839 841 843 837 836 842 843 843 847 849 851 855 850 831 825 840 830 800
816 817 818 818 819 820 820 820 821 821 820 820 820 823 829 833 835 837 835 829 831 846 860 864 869 877 877 877 882 883 883 886 887 885 886 889 889 883 883 887 887 887 889 885 882 883 879 875 878 880 876 878 890 896 894 894 892 891 893 895 890 879 874 871 863 861 860 854 849 842 839 843 839 834 840 844 846 849 847 848 854 850 834 827 832 818 797
818 819 820 820 821 821 821 822 822 821 822 822 821 824 829 833 838 843 844 842 846 861 871 867 866 872 872 875 883 882 879 885 890 889 887 889 891 888 887 888 886 886 886 884 882 883 885 884 881 880 876 875 886 895 895 895 895 894 897 896 891 886 883 876 866 861 861 856 850 847 849 852 847 839 840 845 850 851 850 853 854 849 843 834 824 817 816
820 821 821 822 822 822 822 823 823 822 823 822 822 827 833 837 848 854 852 851 856 863 871 872 869 872 872 875 883 885 882 885 887 887 888 890 891 889 890 891 888 888 888 887 884 882 885 886 881 881 884 881 885 894 896 895 895 895 897 896 892 885 876 875 873 863 855 853 852 851 856 859 853 849 848 849 852 853 855 858 852 847 850 842 829 831 838
822 822 823 823 823 824 824 824 824 823 823 822 823 831 838 842 855 863 857 857 864 865 869 875 874 875 878 882 886 886 884 886 887 887 888 889 890 887 887 892 895 898 897 891 887 885 880 879 879 882 888 887 883 884 890 895 897 896 895 896 894 884 874 877 880 868 859 862 861 857 862 862 855 856 860 859 857 858 859 859 854 852 856 852 845 846 845
824 824 824 824 824 825 825 825 825 824 824 824 823 832 844 848 855 864 861 862 871 875 877 877 874 875 880 883 887 887 885 889 894 896 890 886 890 889 885 890 896 900 901 894 890 889 884 880 883 886 888 889 885 878 879 888 897 895 890 893 895 885 875 881 886 875 863 861 859 858 862 859 854 862 871 870 867 867 865 862 861 859 857 855 855 852 845
826 826 826 826 826 826 826 825 826 825 825 825 826 833 844 846 849 858 861 866 875 879 880 876 870 877 883 882 888 893 889 890 896 899 894 886 890 893 890 892 896 899 900 895 888 891 890 886 888 890 890 890 888 882 878 884 892 891 887 891 893 881 874 882 886 874 858 850 850 855 857 855 860 871 877 875 871 871 869 865 864 864 860 857 856 852 847
829 829 828 828 827 827 827 826 826 827 826 827 831 838 843 844 847 850 853 866 878 878 880 880 873 878 886 886 890 893 892 894 896 897 899 896 893 895 896 896 898 898 897 893 888 891 894 891 890 891 891 889 886 884 886 890 890 889 890 892 890 884 880 881 882 874 857 843 844 852 854 854 866 881 882 878 878 877 873 870 867 867 866 862 858 857 853
832 832 830 830 830 829 829 829 828 829 828 828 833 841 845 845 848 849 849 865 883 882 882 883 878 883 894 895 894 894 894 900 898 892 897 901 898 899 901 899 897 891 887 887 889 892 894 893 892 893 893 894 894 893 895 897 895 892 895 895 894 893 887 882 885 878 856 842 847 855 849 843 859 884 889 882 882 881 875 870 866 865 866 866 865 861 854
835 835 833 833 833 832 832 831 831 832 831 831 834 840 844 843 845 849 850 862 884 891 884 880 881 888 897 898 897 897 896 898 897 891 892 897 900 902 903 900 895 888 885 889 893 896 897 896 898 900 898 897 898 898 898 900 899 897 895 893 896 898 892 889 893 881 859 851 855 853 843 842 861 885 890 884 883 883 877 870 864 862 862 863 861 855 848
838 838 837 836 835 835 835 834 834 834 834 834 835 838 843 843 843 848 851 861 883 892 885 888 896 897 898 899 898 897 897 897 899 898 894 894 898 902 902 899 893 888 889 894 896 895 895 893 892 894 896 898 900 900 899 899 899 899 897 893 892 894 893 892 894 885 867 859 861 855 847 857 876 884 881 881 879 876 874 867 860 861 862 859 856 850 844
841 841 840 839 839 838 838 837 837 837 838 839 838 839 843 844 844 850 856 866 885 892 887 895 907 905 901 900 897 898 903 903 904 905 900 895 896 897 897 896 893 890 892 896 895 892 885 879 877 876 879 886 889 889 890 891 894 897 898 897 893 890 891 892 893 888 872 859 865 864 852 860 882 882 874 876 875 873 875 868 858 860 862 856 852 847 840
844 844 843 842 842 841 841 842 841 841 842 841 840 841 844 844 846 851 855 865 887 902 898 894 899 901 899 898 896 898 901 902 901 900 899 899 896 893 894 895 893 893 895 894 890 886 878 873 872 870 869 871 870 869 870 878 890 895 894 896 896 893 892 891 887 885 878 868 871 868 851 855 879 885 880 883 882 879 881 874 860 856 857 853 849 843 839
848 848 847 846 846 845 845 845 845 845 845 844 842 843 845 846 846 849 853 862 881 898 899 893 893 897 897 896 897 894 892 894 896 895 898 901 897 891 893 895 893 894 896 892 887 883 878 876 876 875 872 869 869 869 866 868 882 894 895 896 897 894 893 893 887 886 886 881 880 876 862 864 886 894 887 886 883 877 876 871 858 852 853 853 849 844 839
851 851 850 850 849 849 849 849 848 848 848 847 846 845 846 848 848 849 854 860 869 883 895 900 902 901 898 897 899 895 891 893 894 892 892 893 892 891 893 894 894 895 894 890 887 884 879 880 884 884 879 876 877 878 873 868 874 886 893 897 898 896 896 897 895 894 893 891 890 883 871 874 892 894 884 881 879 872 868 865 857 852 854 854 849 845 840
855 855 854 853 853 853 852 852 851 851 850 850 848 847 848 851 851 850 854 861 872 888 900 903 905 903 898 895 897 898 897 898 897 893 888 889 892 893 892 892 894 894 891 887 886 885 882 884 890 889 883 884 886 881 878 881 879 877 881 887 890 895 901 899 895 894 894 894 892 882 874 884 894 888 881 881 875 867 870 872 862 854 855 854 849 846 842
859 858 857 857 856 856 855 855 854 853 853 852 850 849 850 853 853 852 855 862 875 893 904 904 902 901 897 895 896 899 899 900 898 895 892 893 896 894 893 893 892 890 890 888 886 888 886 886 892 892 886 887 890 885 884 889 884 877 878 878 879 889 900 899 895 894 894 895 893 882 877 888 892 883 879 878 871 872 884 884 866 854 855 855 851 848 843
862 862 861 860 859 858 858 857 856 855 855 854 852 851 853 856 855 854 857 864 875 890 901 903 901 900 900 900 900 900 900 900 898 895 891 891 895 897 898 899 894 891 893 891 890 894 891 887 896 902 894 888 889 889 891 891 885 881 882 881 888 901 905 902 902 902 897 895 896 889 881 883 888 885 880 878 880 886 887 877 864 859 858 856 852 847 843
865 864 864 863 862 861 860 859 858 857 857 856 855 854 857 859 858 855 857 866 880 895 903 903 902 902 902 901 900 899 900 900 899 897 893 892 897 898 894 893 894 895 895 891 891 898 897 892 898 904 897 892 892 891 893 893 891 892 891 893 907 919 916 911 911 908 902 900 900 899 892 885 885 886 883 883 888 888 878 868 866 864 860 855 850 845 840
868 867 867 866 864 864 862 861 861 860 859 859 857 856 860 862 861 859 859 862 873 889 901 904 903 903 903 903 903 902 901 901 901 900 897 897 899 896 890 892 896 897 898 897 895 899 902 900 903 903 899 899 898 894 894 893 894 898 900 902 915 925 925 925 922 915 917 919 911 904 898 890 887 890 889 886 884 880 874 869 865 861 857 854 847 840 837
871 870 870 868 867 867 865 864 864 862 862 863 859 858 862 866 866 866 864 864 872 888 901 905 905 904 904 904 905 904 904 904 904 903 901 899 900 898 895 897 899 899 902 902 899 900 903 904 905 904 903 903 901 899 901 899 895 901 906 908 917 924 925 929 926 919 922 923 911 900 896 892 890 890 887 882 879 876 874 870 862 857 855 851 845 838 833
874 873 872 871 870 870 868 867 867 865 865 865 863 861 864 868 870 869 868 871 882 895 903 905 904 905 906 906 906 905 905 905 903 904 904 900 899 899 900 900 900 902 905 904 901 902 905 906 908 907 905 906 905 902 904 904 903 909 916 919 923 925 922 923 924 920 916 911 902 897 895 892 889 887 883 881 877 873 870 865 859 854 850 846 843 837 830
876 875 875 874 873 872 871 870 869 868 868 868 866 865 867 870 872 872 871 876 885 894 902 906 906 906 907 907 907 906 906 905 903 903 905 903 899 899 901 903 903 903 905 906 906 907 907 908 912 911 906 906 907 904 904 907 910 916 923 926 927 924 920 921 922 920 917 909 900 895 892 889 888 885 881 878 874 869 865 860 854 849 845 841 839 833 826
879 878 877 876 875 874 873 873 872 871 871 871 869 869 870 871 873 873 873 877 882 889 898 906 908 909 909 909 908 907 906 906 905 903 904 905 904 902 903 905 906 905 906 907 907 907 907 907 911 912 908 906 908 907 907 911 916 922 930 935 932 925 921 922 921 919 918 911 901 894 890 887 886 883 878 873 868 864 860 854 848 844 839 835 831 828 823
881 880 879 879 878 877 876 876 875 874 874 874 873 872 871 872 875 875 874 876 881 888 898 906 908 909 910 909 908 908 907 906 905 905 904 905 905 906 906 906 906 905 906 907 907 908 909 909 910 912 910 908 908 908 909 914 921 928 933 936 933 928 925 925 922 918 913 906 899 895 891 885 883 883 879 873 868 863 857 850 845 840 835 828 823 819 817
883 882 882 881 880 879 879 878 878 877 877 876 875 874 874 874 876 876 875 876 879 884 895 905 910 910 910 909 909 909 908 906 905 905 906 905 905 906 906 906 906 906 907 908 908 909 910 910 910 911 911 910 910 911 914 919 925 932 936 934 931 931 930 929 926 923 916 908 903 902 898 889 883 882 878 872 867 864 856 848 842 837 831 825 818 810 805
885 885 884 883 882 881 881 880 880 879 879 878 877 876 876 876 877 877 877 877 876 880 892 904 909 909 908 909 909 908 907 907 906 905 905 906 905 906 906 905 906 907 907 907 908 909 910 908 908 911 912 910 909 912 918 922 927 933 937 934 932 933 932 931 931 928 919 910 905 906 904 895 885 880 877 871 866 863 857 849 843 837 831 825 818 810 801
887 887 886 885 884 883 882 881 880 879 879 879 879 878 877 879 881 881 881 880 878 882 894 904 907 908 909 909 910 910 908 907 906 906 906 906 906 906 906 906 906 908 909 909 909 910 910 909 910 911 910 909 909 911 916 923 930 934 935 933 931 931 930 929 930 926 918 910 906 904 902 895 886 880 875 869 864 860 855 849 843 837 831 824 818 811 804
889 889 888 887 886 884 883 882 880 880 879 878 879 879 879 882 885 885 885 885 884 885 893 899 904 909 911 910 910 909 908 907 907 906 906 906 907 906 906 907 908 908 909 910 910 910 911 911 911 910 909 909 910 913 920 928 933 933 931 930 930 929 927 927 926 923 917 911 905 901 897 891 884 877 870 865 861 856 850 844 839 834 829 823 816 809 802
891 890 890 889 887 886 885 884 882 881 879 878 879 881 884 886 888 888 887 887 886 887 892 899 905 910 911 911 911 910 908 907 907 906 906 907 907 907 907 907 908 909 909 911 911 912 912 911 909 910 910 909 911 919 928 935 936 933 928 927 927 926 925 923 921 918 915 910 904 898 892 885 880 874 866 860 858 853 846 839 834 829 824 818 812 806 801
892 892 891 891 889 888 887 887 886 883 881 881 882 886 890 891 891 890 889 889 888 889 892 898 905 909 910 910 911 911 908 907 907 907 907 907 907 907 908 908 908 909 910 911 912 912 912 912 911 912 912 911 915 925 932 935 935 932 927 923 923 922 921 919 915 912 909 906 903 897 888 881 877 873 865 858 854 851 845 836 829 824 818 811 806 801 797
893 894 893 892 892 891 889 889 889 886 885 886 888 891 892 892 891 891 891 890 890 892 894 898 905 909 910 910 911 911 909 908 908 908 907 907 907 907 907 908 909 909 909 910 911 911 913 914 913 913 914 915 919 926 932 934 933 930 926 923 921 918 915 913 910 907 904 901 900 896 889 880 874 870 864 855 849 845 840 834 826 819 811 804 799 794 790
895 895 894 893 893 892 891 892 891 890 889 890 892 893 893 893 893 893 892 891 892 895 899 904 909 910 908 908 911 912 911 910 911 911 909 907 906 906 906 907 908 908 908 910 912 912 913 913 912 913 918 922 925 929 932 933 931 928 926 924 920 916 911 907 903 900 898 895 893 891 887 879 872 866 860 852 845 839 834 828 822 815 807 800 795 791 785
896 895 895 895 895 894 894 894 893 892 893 894 895 897 896 895 895 894 892 892 894 899 906 914 917 916 913 911 910 911 913 913 914 914 912 908 907 908 908 907 906 907 909 911 912 913 913 912 913 916 923 927 930 933 934 932 929 927 926 923 919 915 911 905 900 896 893 891 887 884 880 875 869 862 856 850 843 837 830 825 819 814 808 801 794 788 783
897 896 896 896 896 895 895 895 894 895 896 897 898 899 898 897 898 898 896 895 896 902 911 921 926 926 925 921 918 916 914 914 915 916 914 911 909 909 909 907 906 909 913 913 913 914 914 913 914 920 927 930 931 932 933 930 928 927 924 921 919 917 913 908 903 896 891 888 883 877 874 870 865 859 853 847 841 834 828 823 818 813 807 801 795 788 781
897 896 896 896 896 896 896 897 897 898 899 900 900 900 899 900 899 898 898 899 902 906 913 920 928 933 933 930 927 922 918 917 919 917 915 914 913 912 912 911 910 912 914 913 913 914 914 914 917 923 927 930 930 929 930 929 928 927 925 921 919 916 913 909 904 897 891 886 880 874 870 868 864 857 851 845 838 833 827 823 819 815 809 804 797 789 781
897 897 897 896 897 898 898 899 900 900 900 901 900 899 900 902 901 902 906 908 909 914 920 923 929 935 936 932 928 923 920 922 924 920 917 917 915 912 912 914 914 914 915 915 916 916 915 919 926 930 930 930 929 928 927 928 927 926 924 921 917 915 912 907 903 898 893 888 882 876 872 868 864 858 852 845 838 833 828 824 820 817 812 805 797 789 781
898 898 898 897 899 901 901 901 901 901 901 901 900 901 904 905 903 907 915 918 918 922 926 928 931 936 935 932 928 925 924 925 925 923 922 920 916 914 915 916 916 917 916 915 916 914 913 919 929 933 931 930 930 928 927 927 925 923 921 919 916 912 910 906 903 899 895 890 885 880 876 871 866 860 854 847 840 833 828 823 819 816 811 803 795 787 782
898 899 899 900 902 902 902 902 901 901 901 902 901 903 907 910 913 917 921 921 923 929 931 931 933 936 936 934 932 929 927 926 926 927 926 923 921 921 921 919 919 920 919 917 917 916 914 919 927 931 929 928 929 927 926 925 924 920 918 916 913 909 907 904 900 897 893 887 882 877 873 870 866 860 854 848 841 834 829 824 819 815 810 802 793 787 785
900 900 900 901 903 903 902 903 902 901 902 902 904 909 914 917 924 930 928 922 926 934 936 935 935 935 935 936 936 932 929 928 929 930 929 927 925 923 922 922 924 922 917 918 921 921 918 918 923 927 928 928 927 926 925 923 921 918 916 913 910 907 904 900 896 893 888 883 877 873 868 865 861 857 852 847 842 836 831 825 818 813 808 801 793 789 786
901 901 902 903 904 903 903 903 902 902 903 902 906 918 927 927 927 931 930 929 934 939 938 936 936 935 935 936 936 933 931 930 930 930 930 927 926 925 926 929 927 917 912 919 925 922 917 916 918 922 927 928 926 925 923 920 918 917 915 911 908 904 901 897 893 888 885 881 875 871 866 861 858 854 850 846 842 836 830 825 818 811 804 798 794 790 786
902 903 902 903 903 903 904 904 905 908 912 911 910 915 924 929 931 934 936 938 942 942 939 938 939 937 935 935 936 935 933 931 931 933 931 928 928 930 929 927 922 917 917 924 924 917 914 916 919 923 928 927 924 924 922 919 916 914 911 909 906 903 899 896 891 886 882 878 873 868 864 859 855 851 847 844 841 834 826 820 816 810 803 796 792 790 786
903 903 903 903 906 905 904 906 909 910 914 919 920 917 918 925 931 934 935 937 940 942 941 942 943 940 938 938 938 936 935 933 933 933 931 930 933 933 926 920 920 922 923 923 922 920 921 924 925 926 927 925 923 922 921 917 915 912 908 905 903 900 896 893 889 883 878 875 871 866 862 857 852 847 843 840 838 833 826 818 812 807 802 796 791 789 786
903 904 903 903 908 909 906 909 915 916 917 925 930 927 925 927 930 933 937 940 942 943 943 945 946 945 943 940 938 938 939 938 934 933 935 935 934 931 927 926 929 930 928 926 925 923 922 923 926 927 926 924 922 921 919 917 915 911 907 903 900 897 894 891 886 881 877 873 869 865 861 855 851 846 841 836 833 831 826 820 813 806 800 795 789 784 781
904 909 907 903 910 917 916 914 917 922 927 933 936 934 933 934 935 938 942 945 944 943 943 945 946 945 943 941 939 939 941 939 935 936 941 937 929 928 932 934 931 929 925 922 921 919 919 924 928 928 925 923 922 920 918 916 914 911 908 904 900 896 894 890 886 881 877 873 869 865 861 856 851 846 841 836 831 827 824 820 815 809 803 797 791 785 779
907 913 910 906 912 922 923 922 926 933 937 940 941 941 941 942 942 943 945 945 944 945 945 945 945 944 943 943 940 939 942 943 939 938 941 938 932 933 936 932 929 931 929 921 917 922 928 929 928 926 924 923 921 919 917 915 912 910 907 904 900 896 893 889 885 880 876 872 868 865 861 856 851 846 841 835 830 826 822 818 814 810 805 800 794 788 781
909 912 910 910 918 924 925 929 937 943 944 945 946 947 947 945 943 943 943 944 945 945 943 944 944 942 942 943 941 939 942 942 937 937 943 942 935 932 929 923 926 937 941 931 925 929 931 928 926 926 925 923 920 918 916 914 911 909 906 902 899 896 892 888 884 880 876 872 868 865 861 857 852 846 841 835 829 824 821 816 812 809 805 799 792 786 780
912 913 915 922 931 934 936 938 939 939 942 946 949 948 946 944 942 942 943 944 945 944 944 945 944 941 941 943 942 939 940 940 938 940 943 939 933 935 936 928 922 928 935 935 933 932 929 927 927 926 923 921 920 918 916 913 910 908 906 902 899 896 891 887 884 880 875 872 868 864 861 857 851 846 841 835 828 823 820 817 813 808 804 799 792 786 780
914 917 923 927 928 931 938 940 935 933 938 944 944 944 945 944 942 942 943 944 944 944 944 944 942 942 943 943 939 935 938 943 944 941 935 932 938 946 943 930 922 925 931 934 934 931 927 926 926 924 922 921 919 916 914 912 909 906 904 901 898 894 890 887 884 880 875 872 868 864 860 856 850 845 840 835 829 823 818 816 813 809 804 798 793 787 780
918 921 928 930 926 926 932 932 927 927 933 936 937 940 944 943 940 941 942 943 944 943 942 942 944 944 941 936 932 931 936 945 949 946 939 940 947 948 935 923 924 931 932 931 930 930 927 926 925 923 921 920 917 915 913 911 907 904 902 899 896 893 889 885 882 879 875 871 867 863 858 854 849 844 839 834 829 821 813 807 805 803 799 795 790 786 780
921 922 929 933 933 932 932 931 929 931 934 935 937 940 942 940 940 941 942 942 942 941 940 943 946 942 934 932 935 938 939 941 943 941 937 938 942 940 931 926 929 932 930 928 929 929 926 924 923 921 920 918 916 913 911 908 905 903 900 897 895 892 888 884 881 878 875 871 867 862 857 853 847 842 836 830 825 820 813 805 800 798 795 792 788 784 780